Weather History for LTCF - November, 2012

Change the Weather History Date:

Wednesday, November 7, 2012

  Actual Average Record
Temperature  
Mean Temperature 46 °F -  
Max Temperature 63 °F 40 °F - ()
Min Temperature 29 °F 22 °F - ()
Degree Days  
Heating Degree Days 19    
Moisture  
Dew Point 32 °F    
Average Humidity 60    
Maximum Humidity 93    
Minimum Humidity 18    
Precipitation  
Precipitation 0.00 in 0.03 in - ()
Sea Level Pressure  
Sea Level Pressure 30.12 in    
Wind  
Wind Speed 6 mph ()    
Max Wind Speed 15 mph    
Max Gust Speed -    
Visibility 6.2 miles    
Events      
T = Trace of Precipitation, MM = Missing Value Source: Averaged Metar Reports

Daily Weather History Graph

Daily Weather History Graph

Search for Another Location

Airport or City:

Trip Planner

Search our weather history database for the weather conditions in past years. The results will help you decide how hot, cold, wet, or windy it might be!

Date:

Astronomy

Nov. 07, 2012 Rise Set
Actual Time 5:44 AM EET 3:57 PM EET
Civil Twilight 5:16 AM EET 4:26 PM EET
Nautical Twilight 4:43 AM EET 4:58 PM EET
Astronomical Twilight 4:11 AM EET 5:30 PM EET
Moon 11:16 PM EET (11/7) 11:56 AM EET (11/7)
Length of Visible Light 11h 09m
Length of Day
10h 12m
Last Quarter, 46% of the Moon is Illuminated
Nov 7
Last Quarter
Nov 14
New
Nov 20
First Quarter
Nov 28
Full
Dec 6
Last Quarter

Hourly Weather History & Observations

Time (EET) Temp. Windchill Dew Point Humidity Pressure Visibility Wind Dir Wind Speed Gust Speed Precip Events Conditions
12:50 AM 33.8 °F 28.6 °F 28.4 °F 81% 30.18 in - West 5.8 mph - N/A   Clear
1:50 AM 32.0 °F - 28.4 °F 87% 30.18 in - Calm Calm - N/A   Clear
2:00 AM 32 °F - 28 °F 79%  in 6 mi Calm Calm - -  
2:50 AM 32.0 °F 28.7 °F 26.6 °F 80% 30.18 in - West 3.5 mph - N/A   Clear
3:50 AM 35.6 °F - 30.2 °F 81% 30.18 in - SSW 1.2 mph - N/A   Clear
4:50 AM 33.8 °F 29.6 °F 28.4 °F 81% 30.18 in - West 4.6 mph - N/A   Clear
5:50 AM 32.0 °F 25.6 °F 30.2 °F 93% 30.18 in - NW 6.9 mph - N/A   Clear
6:50 AM 35.6 °F - 28.4 °F 75% 30.18 in - Variable 2.3 mph - N/A   Clear
7:50 AM 44.6 °F 42.2 °F 35.6 °F 71% 30.18 in - WSW 4.6 mph - N/A   Clear
8:00 AM 44 °F - 35 °F 60%  in 6 mi WSW 4.6 mph - -  
8:50 AM 48.2 °F - 33.8 °F 58% 30.18 in 6.2 mi West 4.6 mph - N/A   Scattered Clouds
9:50 AM 55.4 °F - 33.8 °F 44% 30.15 in 6.2 mi West 5.8 mph - N/A   Scattered Clouds
10:50 AM 59.0 °F - 32.0 °F 36% 30.12 in 6.2 mi SW 10.4 mph - N/A   Partly Cloudy
11:50 AM 60.8 °F - 30.2 °F 31% 30.09 in 6.2 mi WSW 10.4 mph - N/A   Partly Cloudy
12:50 PM 60.8 °F - 30.2 °F 31% 30.09 in 6.2 mi SW 10.4 mph - N/A   Scattered Clouds
1:50 PM 62.6 °F - 30.2 °F 30% 30.09 in 6.2 mi West 10.4 mph - N/A   Scattered Clouds
2:00 PM 63 °F - 30 °F 18%  in 6 mi West 11.5 mph - -   Partly Cloudy
2:50 PM 59.0 °F - 30.2 °F 34% 30.09 in 6.2 mi SW 15.0 mph - N/A   Scattered Clouds
3:50 PM 53.6 °F - 33.8 °F 47% 30.06 in 6.2 mi SW 11.5 mph - N/A   Scattered Clouds
4:50 PM 50.0 °F - 33.8 °F 54% 30.09 in 6.2 mi SSW 11.5 mph - N/A   Scattered Clouds
5:50 PM 50.0 °F - 35.6 °F 58% 30.09 in 6.2 mi WSW 9.2 mph - N/A   Scattered Clouds
6:50 PM 46.4 °F 42.4 °F 35.6 °F 66% 30.09 in 6.2 mi WNW 8.1 mph - N/A   Scattered Clouds
7:50 PM 46.4 °F 41.5 °F 35.6 °F 66% 30.09 in 6.2 mi West 10.4 mph - N/A   Scattered Clouds
8:00 PM 47 °F - 35 °F 52%  in 6 mi West 10.4 mph - -   Partly Cloudy
8:50 PM 46.4 °F 42.4 °F 35.6 °F 66% 30.09 in 6.2 mi SW 8.1 mph - N/A   Scattered Clouds
9:50 PM 46.4 °F 41.1 °F 35.6 °F 66% 30.09 in 6.2 mi SSW 11.5 mph - N/A   Scattered Clouds
10:50 PM 46.4 °F 41.5 °F 35.6 °F 66% 30.06 in 6.2 mi WSW 10.4 mph - N/A   Scattered Clouds
11:50 PM 48.2 °F - 35.6 °F 62% 30.06 in 6.2 mi WSW 11.5 mph - N/A   Scattered Clouds